When you browse on this site, cookies collect data to enhance your experience and personalize the content and advertising you see.
Visit our Privacy Policy to learn more. By continuing to use the site, you agree to this use of cookies and data.
  • In Austria
  • List of Countries
  • For 7 days
  • Water Temperature
  • Weather Map
  • News
  • Weather Widgets
  • user-avatar
    Login

    Hourly Weather Emiliano Zapata

    Today, 17 August, Saturday

    Time Temperature Precipitation Wind Pressure Humidity
    00:00 +13°C° 0 mm 1 mps 566 mmHg 90%
    01:00 +12°C° 0 mm 1 mps 565 mmHg 90%
    02:00 +12°C° 0 mm 1 mps 565 mmHg 90%
    03:00 +12°C° 0 mm 1 mps 565 mmHg 90%
    04:00 +12°C° 0 mm 1 mps 564 mmHg 91%
    05:00 +11°C° 0 mm 1 mps 564 mmHg 91%
    06:00 +14°C° 0 mm 1 mps 566 mmHg 84%
    07:00 +15°C° 0 mm 0 mps 567 mmHg 77%
    08:00 +17°C° 0 mm 0 mps 568 mmHg 70%
    09:00 +21°C° 0 mm 1 mps 569 mmHg 63%
    10:00 +22°C° 0 mm 1 mps 569 mmHg 55%
    11:00 +24°C° 0 mm 1 mps 570 mmHg 48%
    12:00 +24°C° 0.1 mm 2 mps 569 mmHg 51%
    13:00 +24°C° 0.1 mm 3 mps 569 mmHg 53%
    14:00 +24°C° 0.1 mm 3 mps 568 mmHg 55%
    15:00 +21°C° 1 mm 3 mps 567 mmHg 63%
    16:00 +20°C° 1 mm 2 mps 566 mmHg 71%
    17:00 +18°C° 1 mm 2 mps 566 mmHg 79%
    18:00 +17°C° 0.5 mm 2 mps 566 mmHg 83%
    19:00 +16°C° 0.5 mm 2 mps 565 mmHg 86%
    20:00 +14°C° 0.5 mm 1 mps 565 mmHg 89%
    21:00 +14°C° 0 mm 1 mps 565 mmHg 89%
    22:00 +13°C° 0 mm 1 mps 565 mmHg 88%
    23:00 +13°C° 0 mm 1 mps 565 mmHg 88%

    Tomorrow, 18 August, Sunday

    Time Temperature Precipitation Wind Pressure Humidity
    00:00 +13°C° 0 mm 1 mps 565 mmHg 88%
    01:00 +12°C° 0 mm 1 mps 564 mmHg 88%
    02:00 +12°C° 0 mm 1 mps 564 mmHg 88%
    03:00 +12°C° 0 mm 1 mps 564 mmHg 87%
    04:00 +11°C° 0 mm 0 mps 564 mmHg 87%
    05:00 +11°C° 0 mm 0 mps 564 mmHg 87%
    06:00 +13°C° 0 mm 0 mps 565 mmHg 81%
    07:00 +15°C° 0 mm 0 mps 566 mmHg 74%
    08:00 +17°C° 0 mm 0 mps 568 mmHg 68%
    09:00 +20°C° 0 mm 1 mps 568 mmHg 61%
    10:00 +22°C° 0 mm 1 mps 569 mmHg 55%
    11:00 +23°C° 0 mm 2 mps 569 mmHg 48%
    12:00 +23°C° 0 mm 2 mps 569 mmHg 48%
    13:00 +24°C° 0 mm 3 mps 568 mmHg 49%
    14:00 +24°C° 0 mm 3 mps 568 mmHg 50%
    15:00 +21°C° 0.6 mm 3 mps 567 mmHg 59%
    16:00 +20°C° 0.6 mm 3 mps 566 mmHg 69%
    17:00 +19°C° 0.6 mm 3 mps 565 mmHg 78%
    18:00 +17°C° 0.4 mm 3 mps 565 mmHg 83%
    19:00 +16°C° 0.4 mm 2 mps 565 mmHg 87%
    20:00 +14°C° 0.4 mm 2 mps 565 mmHg 92%
    21:00 +14°C° 0 mm 2 mps 565 mmHg 93%
    22:00 +13°C° 0 mm 2 mps 565 mmHg 93%
    23:00 +13°C° 0 mm 1 mps 565 mmHg 94%

    Day after tomorrow, 19 August, Monday

    Time Temperature Precipitation Wind Pressure Humidity
    00:00 +13°C° 0 mm 1 mps 564 mmHg 94%
    01:00 +12°C° 0 mm 1 mps 564 mmHg 94%
    02:00 +12°C° 0 mm 1 mps 564 mmHg 94%
    03:00 +12°C° 0 mm 1 mps 564 mmHg 95%
    04:00 +11°C° 0 mm 1 mps 564 mmHg 95%
    05:00 +11°C° 0 mm 1 mps 564 mmHg 95%
    06:00 +13°C° 0 mm 1 mps 565 mmHg 90%
    07:00 +14°C° 0 mm 1 mps 566 mmHg 84%
    08:00 +16°C° 0 mm 1 mps 567 mmHg 78%
    09:00 +18°C° 0 mm 2 mps 567 mmHg 71%
    10:00 +20°C° 0 mm 3 mps 568 mmHg 64%
    11:00 +21°C° 0 mm 3 mps 569 mmHg 56%
    12:00 +21°C° 0.7 mm 4 mps 568 mmHg 62%
    13:00 +20°C° 0.7 mm 4 mps 567 mmHg 67%
    14:00 +20°C° 0.7 mm 5 mps 566 mmHg 73%
    15:00 +19°C° 0.5 mm 5 mps 566 mmHg 76%
    16:00 +18°C° 0.5 mm 4 mps 565 mmHg 79%
    17:00 +17°C° 0.5 mm 4 mps 565 mmHg 82%
    18:00 +14°C° 0 mm 3 mps 565 mmHg 86%
    19:00 +13°C° 0 mm 3 mps 565 mmHg 90%
    20:00 +13°C° 0 mm 2 mps 565 mmHg 94%
    21:00 +12°C° 0 mm 2 mps 565 mmHg 94%
    22:00 +10°C° 0 mm 2 mps 564 mmHg 94%
    23:00 +9°C° 0 mm 2 mps 564 mmHg 94%

    20 August, Tuesday

    Time Temperature Precipitation Wind Pressure Humidity
    00:00 +10°C° 0 mm 1 mps 564 mmHg 93%
    01:00 +9°C° 0 mm 1 mps 563 mmHg 91%
    02:00 +9°C° 0 mm 1 mps 563 mmHg 90%
    03:00 +8°C° 0 mm 1 mps 563 mmHg 89%
    04:00 +8°C° 0 mm 1 mps 563 mmHg 87%
    05:00 +8°C° 0 mm 1 mps 563 mmHg 86%
    06:00 +10°C° 0 mm 1 mps 564 mmHg 78%
    07:00 +13°C° 0 mm 1 mps 566 mmHg 69%
    08:00 +15°C° 0 mm 1 mps 567 mmHg 61%
    09:00 +17°C° 0 mm 2 mps 568 mmHg 56%
    10:00 +19°C° 0 mm 3 mps 569 mmHg 52%
    11:00 +21°C° 0 mm 3 mps 569 mmHg 47%
    12:00 +21°C° 0.1 mm 4 mps 569 mmHg 50%
    13:00 +21°C° 0.1 mm 5 mps 568 mmHg 54%
    14:00 +21°C° 0.1 mm 5 mps 568 mmHg 57%
    15:00 +19°C° 0.4 mm 5 mps 567 mmHg 65%
    16:00 +17°C° 0.4 mm 5 mps 567 mmHg 73%
    17:00 +15°C° 0.4 mm 5 mps 566 mmHg 80%
    18:00 +14°C° 0.1 mm 4 mps 566 mmHg 84%
    19:00 +12°C° 0.1 mm 3 mps 566 mmHg 89%
    20:00 +12°C° 0.1 mm 2 mps 565 mmHg 93%
    21:00 +12°C° 0 mm 2 mps 565 mmHg 93%
    22:00 +10°C° 0 mm 2 mps 566 mmHg 92%
    23:00 +10°C° 0 mm 2 mps 566 mmHg 92%

    21 August, Wednesday

    Time Temperature Precipitation Wind Pressure Humidity
    00:00 +11°C° 0 mm 1 mps 565 mmHg 92%
    01:00 +10°C° 0 mm 1 mps 565 mmHg 92%
    02:00 +10°C° 0 mm 1 mps 564 mmHg 92%
    03:00 +10°C° 0 mm 1 mps 564 mmHg 92%
    04:00 +9°C° 0 mm 1 mps 564 mmHg 93%
    05:00 +9°C° 0 mm 1 mps 564 mmHg 93%
    06:00 +11°C° 0 mm 1 mps 565 mmHg 87%
    07:00 +13°C° 0 mm 1 mps 566 mmHg 81%
    08:00 +15°C° 0 mm 1 mps 567 mmHg 76%
    09:00 +16°C° 0 mm 1 mps 568 mmHg 70%
    10:00 +19°C° 0 mm 1 mps 568 mmHg 65%
    11:00 +19°C° 0 mm 2 mps 569 mmHg 59%
    12:00 +19°C° 1 mm 2 mps 568 mmHg 62%
    13:00 +19°C° 1 mm 2 mps 568 mmHg 65%
    14:00 +19°C° 1 mm 2 mps 567 mmHg 67%
    15:00 +18°C° 1.6 mm 3 mps 567 mmHg 74%
    16:00 +17°C° 1.6 mm 3 mps 566 mmHg 80%
    17:00 +16°C° 1.6 mm 3 mps 566 mmHg 86%
    18:00 +14°C° 0.8 mm 3 mps 566 mmHg 89%
    19:00 +14°C° 0.8 mm 2 mps 566 mmHg 92%
    20:00 +13°C° 0.8 mm 2 mps 566 mmHg 94%
    21:00 +13°C° 0.7 mm 1 mps 566 mmHg 95%
    22:00 +13°C° 0.7 mm 1 mps 566 mmHg 95%
    23:00 +13°C° 0.7 mm 1 mps 566 mmHg 95%

    22 August, Thursday

    Time Temperature Precipitation Wind Pressure Humidity
    00:00 +13°C° 1.1 mm 1 mps 566 mmHg 95%
    01:00 +13°C° 1.1 mm 1 mps 566 mmHg 96%
    02:00 +13°C° 1.1 mm 1 mps 565 mmHg 96%
    03:00 +12°C° 0.1 mm 1 mps 565 mmHg 95%
    04:00 +12°C° 0.1 mm 1 mps 565 mmHg 95%
    05:00 +11°C° 0.1 mm 1 mps 565 mmHg 95%
    06:00 +13°C° 0 mm 1 mps 566 mmHg 89%
    07:00 +15°C° 0 mm 1 mps 567 mmHg 83%
    08:00 +16°C° 0 mm 1 mps 568 mmHg 77%
    09:00 +19°C° 0.2 mm 1 mps 568 mmHg 72%
    10:00 +20°C° 0.2 mm 1 mps 569 mmHg 67%
    11:00 +21°C° 0.2 mm 1 mps 569 mmHg 63%
    12:00 +20°C° 1.1 mm 2 mps 569 mmHg 65%
    13:00 +20°C° 1.1 mm 2 mps 568 mmHg 67%
    14:00 +20°C° 1.1 mm 2 mps 568 mmHg 69%
    15:00 +19°C° 1.7 mm 2 mps 567 mmHg 74%
    16:00 +18°C° 1.7 mm 2 mps 567 mmHg 79%
    17:00 +17°C° 1.7 mm 3 mps 567 mmHg 84%
    18:00 +16°C° 1.2 mm 2 mps 566 mmHg 87%
    19:00 +15°C° 1.2 mm 2 mps 566 mmHg 90%
    20:00 +14°C° 1.2 mm 1 mps 566 mmHg 93%
    21:00 +14°C° 1.1 mm 1 mps 566 mmHg 93%
    22:00 +14°C° 1.1 mm 1 mps 566 mmHg 93%
    23:00 +13°C° 1.1 mm 1 mps 566 mmHg 93%
    Show more